Weather in Montigny-le-Bretonneux

France     48°46′27″N   2°02′25″E
temp.,
°C
wind,
m/s
gust,
m/s
humid.,
%
clouds,
%
prec.,
mm/h
press.,
hPa
HPBL,
m
11 april, sun
sun1123:00+8nw249581 1.0 1009299
02:00+6nnw3593100 1.1 1010402
05:00+6n5793100 0.1 1010578
08:00+4n5996100 0.3 1011641
11:00+4n5988100 0.3 1014933
14:00+5n5872100 0.4 10161297
17:00+6n485883 0.0 10181419
20:00+7nnw475987 0.1 1020941
12 april, mon
mon1223:00+4nnw37691 0.0 1024298
02:00+2nw24745 0.0 1026132
05:00+1wnw25785 0.0 1027119
08:00+1wnw37835 0.0 1028184
11:00+7nw45575 0.0 10291173
14:00+10nw4739100 0.0 10292356
17:00+9nw5744100 0.0 10292011
20:00+7nnw465978 0.0 1030790
13 april, tue
tue1323:00+5nw247494 0.0 1032434
02:00+4nne228696 0.1 1032276
05:00+4n128965 0.1 1032276
08:00+2ne24865 0.2 1033204
11:00+6ene34420 0.0 10341005
14:00+9ene33250 0.0 10331865
17:00+11ne33250 0.0 10322134
20:00+8nne34395 0.0 1032782
14 april, wed
wed1423:00+6ne25470 0.0 1033161
02:00+4ne24550 0.0 1032122
05:00+3ne24610 0.0 103299
08:00+3ne24633 0.0 1032141
11:00+8ne34430 0.0 1032999
14:00+11ne353549 0.0 10301972
17:00+11nne453791 0.0 10292072
20:00+9nne465284 0.0 1028824
15 april, thu
thu1523:00+7nne37708 0.1 1030498
02:00+4nne38715 0.1 1030368
05:00+3nne39731 0.0 1029294
08:00+2nne38710 0.0 1030289
11:00+7ne46471 0.0 1030935
14:00+11ene5633100 0.0 10292567
17:00+11ne5639100 0.0 10272252
20:00+9ne69459 0.1 10281329